Theta_e
284 287 287 285 285 285 282 284 280 283 283 286 287 288 288 288 288 287 286 285 284 281 275 274 277 279 282 283 283 284 283 284 285 287 286 285 285 286 286 287 287 289 288 288
283 286 287 285 286 286 286 286 285 285 284 289 291 290 287 288 288 286 285 284 284 283 281 279 279 281 282 282 282 283 282 284 285 286 285 284 283 284 284 284 285 287 287 286
280 285 284 280 283 285 286 288 286 281 285 289 287 288 287 287 286 285 285 284 283 282 280 280 280 281 280 281 282 281 282 284 284 285 285 283 282 282 282 282 284 284 285 285
280 281 275 283 289 289 287 288 289 288 288 289 289 288 287 287 286 285 284 282 282 280 279 279 279 280 280 281 280 281 282 282 283 284 284 282 281 280 281 282 283 283 283 284
277 278 280 283 285 286 285 284 290 287 288 288 286 285 282 286 285 283 282 281 280 280 279 279 279 279 279 279 280 281 281 281 282 283 283 282 280 279 280 281 282 282 283 284
279 275 270 279 285 289 289 279 288 289 287 284 285 279 280 283 283 282 281 281 280 280 279 278 278 279 278 277 279 279 281 282 282 283 283 281 280 280 281 281 282 282 282 284
278 276 278 285 287 290 279 278 288 289 287 285 280 282 283 282 281 281 280 280 280 279 277 277 278 279 277 277 278 280 282 282 282 283 282 282 280 280 280 280 282 281 282 283
280 277 274 287 286 282 285 287 288 288 287 284 283 282 281 280 279 279 278 278 278 276 276 276 277 278 276 276 279 281 281 281 281 282 282 282 280 280 280 279 280 280 280 281
281 278 286 288 287 289 290 288 287 286 286 284 281 280 280 278 278 277 277 276 276 275 275 276 276 277 275 277 279 281 281 280 280 282 281 282 280 280 278 278 278 278 278 278
281 284 286 288 290 290 290 287 288 287 285 283 279 279 278 277 276 275 275 275 275 274 274 275 276 277 277 278 280 279 279 279 280 280 280 280 280 279 278 277 277 277 276 277
284 285 286 288 288 288 288 288 287 286 284 281 279 278 277 275 274 274 275 274 274 274 274 274 275 276 276 279 280 279 279 279 279 279 279 279 280 277 277 277 278 277 276 277
279 286 285 285 288 288 286 285 284 283 281 281 280 276 275 273 274 274 274 274 273 273 273 273 274 275 276 277 279 278 278 278 278 278 279 278 278 277 279 278 279 279 279 278
285 290 289 289 289 287 284 283 283 281 281 278 278 276 275 274 274 275 273 272 272 271 272 272 273 274 275 277 278 278 277 277 277 277 277 277 276 275 274 275 277 277 278 278
288 286 284 285 282 284 283 282 282 281 281 279 277 276 275 273 273 269 264 263 262 263 264 265 267 271 272 275 275 274 274 275 276 276 275 275 275 276 275 273 271 271 274 275
289 289 286 283 283 282 281 280 278 278 278 277 276 275 274 273 273 272 267 262 261 263 263 264 265 270 271 273 272 274 273 274 273 274 275 274 274 274 274 273 272 271 271 272
285 285 284 282 280 280 279 278 277 276 276 275 274 273 273 273 273 273 273 271 268 264 262 262 266 269 272 273 272 273 273 273 273 274 273 273 273 272 272 272 272 271 270 269
282 281 281 280 279 279 278 278 277 276 275 274 274 274 273 272 270 268 265 262 260 258 258 261 267 267 274 275 273 273 272 273 272 272 271 271 272 271 271 271 270 270 270 271
287 285 283 282 279 277 277 277 276 275 274 274 272 267 265 264 261 256 257 256 260 262 263 265 269 271 272 274 275 273 272 272 272 271 270 268 269 269 268 269 269 269 269 269
282 280 279 279 278 277 276 275 272 270 267 266 266 264 263 261 262 259 258 259 258 263 264 269 273 272 272 273 271 271 270 269 270 269 268 266 266 267 266 265 266 266 267 267
278 278 277 276 276 274 270 269 269 267 265 264 262 262 262 257 257 258 259 262 261 264 270 270 270 270 271 270 268 269 268 267 268 267 265 264 262 261 264 264 264 264 263 264
276 275 273 272 270 270 269 269 268 266 263 262 263 263 263 261 257 256 261 264 264 268 269 268 268 267 268 267 267 265 264 263 264 264 262 261 260 260 259 260 261 261 262 261
272 270 269 269 269 267 267 268 267 264 262 259 257 259 260 257 256 257 257 261 264 262 266 266 265 261 264 264 264 261 264 263 264 262 261 260 258 257 259 259 260 258 257 257
269 269 268 268 268 265 263 263 262 263 261 261 261 260 263 263 263 263 262 265 265 262 264 260 260 259 258 258 257 256 257 258 259 259 259 254 253 255 258 259 259 259 257 257
268 268 265 265 265 266 263 256 261 260 259 258 261 261 264 261 259 261 262 261 260 258 257 257 258 258 256 254 253 252 252 253 253 253 255 255 252 253 257 257 258 257 257 258
268 267 267 267 266 265 264 262 262 259 259 261 262 263 265 264 263 263 258 259 263 260 258 256 258 257 253 252 252 252 251 251 251 251 251 251 251 251 253 255 256 257 256 257
269 269 268 268 268 267 267 267 265 263 264 260 259 258 258 259 260 262 258 258 259 260 258 255 254 253 253 254 253 252 253 255 252 252 251 250 250 251 250 254 256 254 253 251
269 268 268 267 268 269 268 266 265 263 263 263 262 258 260 257 258 260 257 256 256 255 255 254 254 256 255 253 254 254 253 252 251 253 250 249 249 247 248 249 250 250 249 249
Wind_Speed
3 6 6 6 5 6 7 14 9 21 16 13 18 17 13 7 6 6 5 4 1 2 3 5 5 6 7 8 11 12 13 13 14 16 16 17 17 17 16 16 16 17 15 15
7 3 6 7 8 9 11 14 13 19 26 3 11 8 10 10 9 7 5 4 2 4 2 5 6 8 9 10 11 12 13 14 14 15 18 17 17 17 17 16 16 16 16 16
8 6 1 5 22 13 10 10 16 19 8 8 6 11 11 9 8 7 7 5 3 4 3 4 6 8 9 10 11 11 12 13 14 15 15 17 17 17 17 18 17 16 16 16
2 3 8 7 6 16 21 24 19 6 6 16 11 9 11 6 6 7 7 6 4 3 4 6 6 7 7 8 9 11 14 12 14 15 14 16 17 17 17 16 16 15 15 16
4 6 7 8 3 6 9 10 12 7 10 13 16 11 6 4 6 8 7 5 4 4 4 5 6 7 8 8 9 11 12 13 15 14 14 15 16 17 16 15 16 15 15 16
4 4 7 5 5 4 6 9 4 9 15 19 15 7 4 9 12 10 8 5 4 4 3 5 6 6 8 9 11 12 14 13 12 13 14 13 14 15 15 15 14 13 15 14
4 4 8 7 7 1 6 6 4 11 13 15 5 2 13 14 12 10 7 7 6 5 5 6 8 7 9 9 12 13 13 12 12 12 12 12 12 12 14 15 14 14 15 14
3 4 9 1 1 6 6 7 10 13 12 15 13 14 14 13 11 9 8 8 9 5 6 7 7 8 9 10 12 13 12 11 11 12 11 10 11 13 14 15 14 15 16 14
9 7 3 3 1 7 7 14 8 15 13 16 14 13 12 11 10 9 8 6 5 5 6 6 7 7 9 11 12 12 11 11 11 13 10 11 10 12 11 13 12 13 13 13
5 2 3 10 12 13 11 16 14 15 15 14 15 12 12 9 8 7 6 6 6 7 6 7 9 10 9 11 11 11 11 11 11 12 13 10 8 8 9 10 11 12 13 13
5 8 11 8 12 16 18 17 14 13 13 15 15 10 10 9 8 7 7 6 6 5 6 8 8 8 9 11 11 11 10 10 10 9 10 9 8 9 9 9 14 12 12 12
7 11 8 11 13 17 17 15 13 16 14 12 13 12 13 9 7 6 6 5 6 7 7 7 8 8 10 11 11 11 9 9 9 8 8 8 8 6 17 18 23 24 25 17
7 6 12 15 12 13 16 14 12 13 13 15 12 12 12 10 8 10 7 8 7 7 6 7 8 9 11 11 11 10 9 10 8 9 9 9 9 9 9 13 21 25 28 28
21 20 12 8 8 13 16 16 17 14 12 12 13 11 11 10 9 6 4 1 2 3 5 6 7 9 10 10 9 7 8 11 8 7 8 8 9 8 8 9 11 12 19 23
16 9 13 17 17 15 15 16 15 13 12 12 10 10 9 9 10 8 4 3 3 5 7 7 7 10 10 9 7 8 7 7 7 7 8 9 8 9 9 9 10 9 11 15
16 19 19 17 17 15 15 13 15 12 11 11 10 9 9 9 8 8 9 8 6 5 6 6 6 8 9 8 7 6 7 11 8 7 8 8 8 9 9 9 9 10 10 12
23 15 16 16 15 15 12 10 12 12 11 11 11 10 9 9 9 8 5 4 4 3 3 3 6 7 9 9 7 6 6 7 9 8 8 8 8 9 9 9 9 9 9 11
12 15 13 17 17 15 12 12 12 12 10 11 9 8 8 7 6 3 2 1 5 6 6 6 5 6 8 8 8 6 6 6 7 7 7 8 8 8 8 9 9 9 9 11
15 17 15 15 14 14 13 12 9 9 9 9 10 8 7 6 5 3 2 5 4 4 6 6 8 8 8 9 7 5 6 6 7 7 7 7 7 8 8 8 8 9 9 9
15 15 15 15 12 14 12 9 11 10 7 9 9 8 7 4 4 5 3 3 1 2 3 6 6 6 6 7 8 5 6 6 6 5 6 6 6 6 6 9 8 7 8 8
14 14 14 13 12 10 11 10 12 11 7 7 9 9 8 6 3 4 4 4 4 4 5 6 5 4 4 5 5 5 5 4 5 5 5 5 6 6 6 6 6 7 7 6
11 11 12 12 12 10 7 8 10 10 8 7 6 7 7 4 4 3 1 3 1 4 3 3 3 5 4 6 5 4 5 5 4 4 4 5 4 4 5 5 6 5 5 5
9 10 11 11 12 10 7 7 7 9 8 7 8 7 7 5 4 5 3 2 2 3 2 2 3 5 5 4 3 4 4 5 4 3 3 3 3 4 4 5 4 4 5 5
10 9 7 8 10 10 10 2 6 5 6 5 6 6 6 3 2 1 2 3 4 4 2 0 3 5 5 3 3 3 3 3 3 2 2 3 2 3 4 4 5 5 5 5
10 10 10 11 9 5 8 7 7 5 5 5 5 5 5 2 4 3 3 3 4 3 2 2 3 4 3 2 2 2 1 1 0 2 3 3 3 3 4 4 3 4 4 5
11 8 7 6 7 7 7 7 5 4 4 4 1 2 2 1 2 4 3 2 2 3 2 1 0 1 1 1 1 0 1 1 2 2 1 2 2 3 3 3 3 3 3 3
7 7 6 5 4 6 6 5 7 6 4 4 4 2 3 3 3 3 4 3 2 2 2 2 2 2 1 1 1 1 1 1 1 1 0 1 1 1 2 3 3 3 3 3
Wind_Direction
267 168 153 159 206 176 181 242 229 263 263 253 197 193 181 156 159 134 116 107 42 356 281 287 302 325 337 347 339 337 331 328 332 331 333 332 331 329 328 327 326 324 326 335
301 210 203 207 228 208 226 206 239 244 248 199 188 138 156 158 148 139 129 143 74 90 329 344 341 347 344 345 337 335 330 330 335 333 338 334 333 332 331 330 330 330 334 338
234 211 203 273 236 237 245 233 219 230 217 134 161 170 158 145 134 141 135 108 86 92 28 4 352 351 347 338 331 331 328 333 340 333 335 335 335 336 337 335 332 337 334 337
161 74 241 233 185 212 223 235 229 238 156 179 175 129 115 107 129 127 121 102 90 81 29 4 357 350 326 329 330 333 342 339 340 332 335 338 339 340 338 337 337 337 331 335
180 200 311 297 239 172 184 264 226 191 123 117 112 88 49 104 103 106 104 104 108 89 46 6 1 335 326 331 339 347 342 338 342 334 336 343 341 340 337 337 336 338 336 337
137 216 224 243 280 313 143 262 186 149 151 146 137 153 166 114 106 97 93 85 87 91 45 19 346 328 336 341 347 345 338 331 334 338 336 345 338 337 335 337 336 338 337 342
175 218 280 244 272 187 182 239 115 144 148 142 108 131 122 110 97 98 96 86 77 62 39 5 354 334 344 344 348 338 330 328 332 337 339 344 335 342 341 340 340 347 342 345
166 200 257 236 92 177 167 59 105 113 117 102 108 108 107 104 105 95 81 62 53 43 24 1 345 347 344 347 339 336 328 328 332 341 349 343 343 347 351 345 347 353 348 351
183 210 268 329 127 106 118 118 112 107 111 116 115 110 109 103 92 78 68 64 43 40 18 356 346 352 345 346 342 336 329 334 338 350 351 353 360 354 353 351 355 357 355 352
121 202 114 115 96 95 98 104 113 110 116 114 115 116 105 102 94 82 69 63 34 34 16 356 350 351 348 347 337 337 343 342 347 352 357 360 8 358 358 357 360 360 359 356
75 102 85 76 107 114 102 97 101 101 111 115 112 110 114 98 86 78 72 47 40 27 17 359 344 346 346 341 342 348 351 349 351 351 349 356 11 7 6 3 10 6 3 358
189 169 121 132 122 114 116 125 122 116 102 100 110 108 99 89 85 81 72 55 43 31 22 360 352 346 347 346 351 350 356 355 355 350 352 358 357 3 12 15 16 17 17 15
137 132 126 131 127 128 118 123 111 101 105 105 103 109 101 100 90 89 67 59 48 33 18 2 356 0 354 353 351 356 356 358 360 2 357 357 6 3 2 1 13 16 16 17
113 111 100 134 134 118 118 111 103 100 105 111 111 107 107 101 92 86 78 49 30 12 12 354 358 2 346 346 348 348 357 1 2 4 1 360 357 1 5 8 8 3 7 12
135 101 115 116 114 116 117 118 111 110 117 115 113 115 113 112 109 106 101 69 41 34 16 5 2 357 343 344 354 359 9 5 1 4 3 4 2 6 6 13 15 13 5 11
114 114 121 123 126 130 125 122 117 120 117 116 113 112 113 111 106 96 76 58 54 27 345 351 358 341 339 354 358 6 5 9 14 11 7 10 9 9 10 12 15 18 19 14
119 126 132 137 142 139 138 129 125 126 124 126 128 129 117 103 91 84 69 26 56 26 316 343 339 330 14 22 14 7 5 10 9 18 15 10 9 10 10 12 13 14 16 12
119 125 132 136 138 133 124 120 122 125 130 132 121 108 101 97 118 118 84 22 29 21 10 342 342 0 15 21 29 20 17 17 18 17 15 14 11 13 11 12 13 12 13 9
114 116 118 124 129 125 127 126 114 112 116 126 122 120 118 117 121 115 109 66 44 36 342 353 15 22 25 23 27 23 24 18 26 20 12 11 11 11 15 12 14 12 9 8
104 105 108 108 113 124 116 112 121 115 120 115 111 115 121 125 123 106 84 84 245 238 346 16 23 25 24 26 26 29 29 25 26 20 22 14 9 4 11 15 12 13 8 7
115 114 114 116 108 107 122 131 127 129 123 121 129 142 145 149 130 133 84 76 332 30 41 31 29 13 20 22 31 29 26 26 31 23 16 2 7 9 2 358 6 6 7 6
122 119 117 119 122 117 117 121 119 120 118 109 101 123 129 131 115 75 212 155 244 51 44 35 33 37 43 41 40 33 36 34 23 20 16 9 7 358 358 356 1 352 353 353
117 123 121 127 135 131 105 111 121 131 135 145 146 152 149 160 147 123 126 262 114 80 63 41 60 69 64 52 50 47 41 39 29 20 21 9 2 360 355 348 348 348 351 350
119 117 106 110 120 124 130 162 133 129 143 160 169 168 147 133 326 248 145 137 123 102 91 76 77 75 75 67 59 56 48 45 38 26 17 21 12 352 3 351 349 346 349 352
125 124 128 136 136 136 133 140 120 121 128 132 151 174 166 161 150 194 151 192 181 133 114 21 76 82 76 73 75 68 57 50 6 58 33 29 354 355 351 354 356 351 348 350
138 140 143 145 139 146 143 148 147 158 142 135 202 207 169 191 132 130 143 163 176 182 179 195 110 80 103 104 100 73 315 347 27 19 32 20 3 7 354 348 350 348 336 326
109 119 127 111 132 144 149 148 152 173 170 155 153 202 173 154 160 142 135 152 172 198 227 239 225 229 201 206 218 217 253 283 223 214 232 278 317 304 321 318 323 324 332 347